SNAP-3 ALICE

Last updated on Tue Jul 01 2025 00:03:44 GMT+0000 (Coordinated Universal Time)

1 40970U 15058G 25181.37460700 .00012934 00000+0 52925-3 0 9997 2 40970 64.7639 197.2438 0081202 189.1070 170.8591 15.21596861 62834
UTC large
Height (km)
Speed (km/s)
/
Latitude / Longitude
Inclination (degrees)
Orbital Period (minutes)
Azimuth
Elevation
Range (km)
Doppler Factor

Next 0 passes for location: London (51.5072 / 0.1276)

Sorry there are no passes over London.